Location: Azul
(36.7830°S, 59.8500°W)
Time: 00:50:04
(UTC-03:00)

STARS - Pass Details

Date: 25 October 2021
Orbit: 623 x 638 km, 98.2° (Epoch: 30 November)

Event Time Altitude Azimuth Distance (km) Brightness Sun altitude
Exits shadow 22:04:00 32° 163° (SSE) 1,090 ? -28.1°
Drops below altitude 10° 22:06:36 10° 182° (S) 2,032 ? -28.5°
Sets 22:08:52 0° 186° (S) 2,946 ? -28.8°
